This demonstration page uses our WeatherBlox Daily Observations layout. Learn more.

Left ArrowRight Arrow

40.92945, -100.16068

Hourly Observations for March 28, 2021

Temp ( °F °C ) Dew Point ( °F °C ) Humidity (%) Winds ( mph kmh ) Pressure ( in mb ) Visibility ( mi km ) Precip ( " mm )
12:15 am 00:15 Clear 31 -0.4 28 -2.2 88 88 WNW 6 9 30.33 1027 10 16 N/A
12:35 am 00:35 Clear 32 undefined 28 -2 87 87 W 7 11 30.33 1027 10 16 N/A
12:55 am 00:55 Clear 31 -0.4 28 -2 89 89 W 5 7 30.33 1027 10 16 N/A
1:15 am 01:15 Clear 31 -0.6 28 -2.1 90 90 WNW 3 6 30.33 1027 10 16 N/A
1:35 am 01:35 Clear 31 -0.6 28 -2.1 90 90 WNW 6 9 30.33 1027 10 16 N/A
1:55 am 01:55 Clear 30 -0.9 28 -2.4 90 90 NNW 5 7 30.34 1027 10 16 N/A
2:15 am 02:15 Clear 30 -1.2 28 -2.4 92 92 N 5 7 30.34 1027 10 16 N/A
2:35 am 02:35 Clear 30 -1 28 -2.2 92 92 NNW 5 7 30.34 1027 10 16 N/A
2:55 am 02:55 Clear 30 -1.3 28 -2.5 92 92 NW 5 7 30.33 1027 10 16 N/A
3:15 am 03:15 Clear 29 -1.6 27 -2.9 91 91 W 6 9 30.33 1027 10 16 N/A
3:35 am 03:35 Clear 30 -1.3 28 -2.4 92 92 W 8 13 30.33 1027 10 16 N/A
3:55 am 03:55 Clear 30 -1.3 28 -2.5 92 92 W 6 9 30.33 1027 10 16 N/A
4:15 am 04:15 Clear 29 -1.6 27 -2.9 91 91 W 5 7 30.33 1027 10 16 N/A
4:35 am 04:35 Clear 30 -1.3 28 -2.5 92 92 WNW 5 7 30.33 1027 10 16 N/A
4:55 am 04:55 Clear 29 -1.6 27 -2.7 92 92 NW 5 7 30.33 1027 10 16 N/A
5:15 am 05:15 Clear 28 -2.3 26 -3.2 94 94 NNW 3 6 30.34 1027 10 16 N/A
5:35 am 05:35 Clear 28 -2.2 26 -3.2 93 93 NW 6 9 30.35 1028 10 16 N/A
5:55 am 05:55 Clear 28 -2.2 26 -3.1 94 94 NW 3 6 30.34 1027 10 16 N/A
6:15 am 06:15 Clear 28 -2.3 26 -3.3 93 93 NW 3 6 30.35 1028 10 16 N/A
6:35 am 06:35 Clear 28 -2 27 -3 93 93 NW 5 7 30.35 1028 10 16 N/A
6:55 am 06:55 Clear 28 -2.2 26 -3.2 93 93 NW 6 9 30.35 1028 10 16 N/A
7:15 am 07:15 Clear 28 -2.1 26 -3.2 92 92 NW 5 7 30.36 1028 10 16 N/A
7:35 am 07:35 Sunny 28 -2.2 26 -3.3 92 92 WNW 5 7 30.35 1028 10 16 N/A
7:55 am 07:55 Sunny 28 -2 27 -3 93 93 NW 5 7 30.35 1028 10 16 N/A
8:15 am 08:15 Sunny 30 -1.3 28 -2.5 92 92 WNW 5 7 30.34 1027 10 16 N/A
8:35 am 08:35 Sunny 31 -0.5 28 -2 90 90 WNW 3 6 30.34 1028 10 16 N/A
8:55 am 08:55 Sunny 33 0.3 30 -1.2 90 90 W 6 9 30.33 1027 10 16 N/A
9:15 am 09:15 Sunny 34 1.2 31 -0.8 87 87 WNW 3 6 30.33 1027 10 16 N/A
9:35 am 09:35 Sunny 36 2.2 32 -0.1 85 85 W 3 6 30.32 1027 10 16 N/A
9:55 am 09:55 Sunny 38 3.6 33 0.4 80 80 W 3 6 30.29 1026 10 16 N/A
10:15 am 10:15 Sunny 41 4.8 33 0.3 73 73 W 5 7 30.28 1025 10 16 N/A
10:35 am 10:35 Sunny 43 6 34 0.9 70 70 N N/A 30.26 1025 10 16 N/A
10:55 am 10:55 Sunny 46 7.8 34 1.1 63 63 W 5 7 30.24 1024 10 16 N/A
11:15 am 11:15 Sunny 49 9.3 36 2.1 61 61 SSW 3 6 30.22 1023 10 16 N/A
11:35 am 11:35 Sunny 52 11 36 2 54 54 N N/A 30.19 1022 10 16 N/A
11:55 am 11:55 Sunny 56 13.2 33 0.7 43 43 W 13 20 30.16 1021 10 16 N/A
12:15 pm 12:15 Sunny 57 13.9 32 -0.1 39 39 SW 13 20 30.15 1021 10 16 N/A
12:35 pm 12:35 Sunny 58 14.3 32 0.2 38 38 SW 12 19 30.12 1020 10 16 N/A
12:55 pm 12:55 Sunny 58 14.7 34 1.3 40 40 SSW 16 26 30.11 1020 10 16 N/A
1:15 pm 13:15 Sunny 60 15.5 32 undefined 35 35 SW 17 28 30.08 1019 10 16 N/A
1:35 pm 13:35 Sunny 61 16.3 31 -0.5 32 32 SW 15 24 30.06 1018 10 16 N/A
1:55 pm 13:55 Sunny 62 16.7 31 -0.8 31 31 SW 21 33 30.05 1018 10 16 N/A
2:15 pm 14:15 Sunny 63 17.1 30 -1.2 29 29 WSW 12 19 30.04 1017 10 16 N/A
2:35 pm 14:35 Sunny 64 17.9 31 -0.6 29 29 SW 14 22 30.00 1016 10 16 N/A
2:55 pm 14:55 Sunny 65 18.3 29 -1.5 26 26 WSW 14 22 29.99 1015 10 16 N/A
3:15 pm 15:15 Sunny 66 18.9 28 -2 24 24 WSW 20 31 29.97 1015 10 16 N/A
3:35 pm 15:35 Sunny 68 19.8 32 0.1 27 27 WSW 17 28 29.94 1014 10 16 N/A
3:55 pm 15:55 Sunny 68 20 31 -0.6 25 25 W 24 39 29.93 1014 10 16 N/A
4:15 pm 16:15 Sunny 68 20.2 30 -1.2 24 24 W 26 43 29.91 1013 10 16 N/A
4:35 pm 16:35 Sunny 69 20.8 30 -1.1 23 23 W 21 33 29.90 1012 10 16 N/A
4:55 pm 16:55 Sunny 69 20.5 30 -1.2 23 23 W 24 39 29.90 1012 10 16 N/A
5:15 pm 17:15 Sunny 70 20.9 29 -1.7 22 22 W 23 37 29.88 1012 10 16 N/A
5:35 pm 17:35 Sunny 69 20.8 28 -2.2 21 21 W 21 33 29.89 1012 10 16 N/A
5:55 pm 17:55 Sunny 69 20.8 28 -2.1 21 21 WSW 20 31 29.88 1012 10 16 N/A
6:15 pm 18:15 Sunny 69 20.7 28 -2.1 22 22 WSW 16 26 29.87 1011 10 16 N/A
6:35 pm 18:35 Sunny 69 20.8 30 -1.3 23 23 WSW 14 22 29.86 1011 10 16 N/A
6:55 pm 18:55 Sunny 69 20.5 30 -1.2 23 23 WSW 18 30 29.86 1011 10 16 N/A
7:15 pm 19:15 Sunny 68 19.8 29 -1.5 24 24 WSW 16 26 29.86 1011 10 16 N/A
7:35 pm 19:35 Sunny 65 18.4 29 -1.5 26 26 W 14 22 29.87 1011 10 16 N/A
7:55 pm 19:55 Sunny 62 16.7 31 -0.8 31 31 W 10 17 29.88 1012 10 16 N/A
8:15 pm 20:15 Clear 57 14 31 -0.5 37 37 SW 9 15 29.89 1012 10 16 N/A
8:35 pm 20:35 Clear 57 13.7 30 -1 37 37 WSW 6 9 29.90 1012 10 16 N/A
8:55 pm 20:55 Clear 56 13.1 32 undefined 41 41 SSW 9 15 29.90 1013 10 16 N/A
9:15 pm 21:15 Clear 54 12.4 31 -0.8 40 40 SW 8 13 29.91 1013 10 16 N/A
9:35 pm 21:35 Clear 55 12.9 32 -0.1 41 41 SSW 9 15 29.90 1013 10 16 N/A
9:55 pm 21:55 Clear 56 13.1 31 -0.8 39 39 SW 10 17 29.89 1012 10 16 N/A
10:15 pm 22:15 Clear 55 13 30 -1.2 38 38 SSW 10 17 29.89 1012 10 16 N/A
10:35 pm 22:35 Clear 55 12.6 30 -1.2 39 39 SSW 9 15 29.89 1012 10 16 N/A
10:55 pm 22:55 Clear 54 12.1 30 -1.3 40 40 SSW 9 15 29.89 1012 10 16 N/A
11:15 pm 23:15 Clear 54 12.1 30 -1.3 40 40 SSW 10 17 29.88 1012 10 16 N/A
11:35 pm 23:35 Clear 51 10.8 30 -1 44 44 SSW 9 15 29.88 1012 10 16 N/A
11:55 pm 23:55 Clear 52 11.3 29 -1.8 40 40 SW 5 7 29.87 1011 10 16 N/A

Powered by AerisWeather